| time (UTC) | temp F | wind direction | speed MPH | gust MPH | rain 1hr in | rain 24hr in | rain mn in | humidity % | barometer mb |
| 20260507113251 | 65 | 49 | 8.0 | 11.0 | 0.00 | 0.03 | 0.03 | 94 | 1022.0 |
| 20260507111746 | 64 | 22 | 6.0 | 10.0 | 0.00 | 0.03 | 0.03 | 94 | 1022.2 |
| 20260507111637 | 62 | 60 | 2.0 | 4.0 | 0.00 | 0.03 | 0.03 | 94 | 1022.3 |
| 20260507105441 | 62 | 337 | 2.0 | 5.0 | 0.00 | 0.03 | 0.03 | 94 | 1022.4 |
| 20260507103944 | 62 | 277 | 1.0 | 4.0 | 0.00 | 0.03 | 0.03 | 94 | 1022.5 |
| 20260507101739 | 62 | 298 | 3.0 | 7.0 | 0.00 | 0.03 | 0.03 | 94 | 1022.4 |
| 20260507100240 | 62 | 203 | 2.0 | 4.0 | 0.00 | 0.03 | 0.03 | 93 | 1022.5 |
| 20260507100118 | 62 | 252 | 2.0 | 4.0 | 0.00 | 0.03 | 0.03 | 92 | 1022.6 |
| 20260507093231 | 63 | 325 | 1.0 | 4.0 | 0.00 | 0.03 | 0.03 | 92 | 1022.6 |
| 20260507091726 | 64 | 346 | 0.0 | 3.0 | 0.00 | 0.03 | 0.03 | 92 | 1022.7 |
| 20260507090222 | 64 | 346 | 2.0 | 4.0 | 0.00 | 0.03 | 0.03 | 92 | 1022.8 |
| 20260507084723 | 64 | 323 | 2.0 | 7.0 | 0.00 | 0.03 | 0.03 | 91 | 1022.8 |
| 20260507083914 | 65 | 0 | 2.0 | 10.0 | 0.00 | 0.03 | 0.03 | 91 | 1022.8 |
| 20260507081715 | 65 | 315 | 4.0 | 9.0 | 0.00 | 0.03 | 0.03 | 90 | 1022.9 |
| 20260507080215 | 65 | 42 | 7.0 | 11.0 | 0.00 | 0.03 | 0.03 | 90 | 1022.9 |
| 20260507074710 | 65 | 17 | 8.0 | 11.0 | 0.00 | 0.05 | 0.03 | 90 | 1022.9 |
| 20260507073210 | 65 | 23 | 10.0 | 12.0 | 0.00 | 0.05 | 0.03 | 89 | 1022.8 |
| 20260507071706 | 65 | 15 | 9.0 | 12.0 | 0.00 | 0.05 | 0.03 | 90 | 1022.8 |
| 20260507070203 | 65 | 42 | 8.0 | 12.0 | 0.00 | 0.05 | 0.03 | 89 | 1022.7 |
| 20260507064657 | 65 | 30 | 9.0 | 13.0 | 0.00 | 0.05 | 0.03 | 89 | 1022.6 |
| 20260507063152 | 65 | 26 | 8.0 | 12.0 | 0.00 | 0.05 | 0.03 | 89 | 1022.5 |
| 20260507063046 | 65 | 48 | 6.0 | 10.0 | 0.00 | 0.05 | 0.03 | 88 | 1022.7 |
| 20260507060838 | 65 | 24 | 5.0 | 9.0 | 0.00 | 0.05 | 0.03 | 88 | 1022.7 |
| 20260507054651 | 65 | 11 | 5.0 | 9.0 | 0.00 | 0.05 | 0.03 | 88 | 1022.8 |
| 20260507053836 | 65 | 329 | 4.0 | 10.0 | 0.00 | 0.05 | 0.03 | 87 | 1022.9 |
| 20260507051641 | 65 | 23 | 5.0 | 12.0 | 0.00 | 0.05 | 0.03 | 87 | 1022.8 |
| 20260507050141 | 65 | 36 | 9.0 | 16.0 | 0.00 | 0.05 | 0.03 | 87 | 1022.8 |
| 20260507044637 | 65 | 24 | 7.0 | 11.0 | 0.00 | 0.05 | 0.03 | 86 | 1023.0 |
| 20260507043137 | 65 | 49 | 8.0 | 14.0 | 0.00 | 0.05 | 0.03 | 85 | 1023.0 |
| 20260507041633 | 66 | 30 | 11.0 | 14.0 | 0.00 | 0.05 | 0.03 | 86 | 1023.2 |
| 20260507040129 | 66 | 55 | 9.0 | 12.0 | 0.00 | 0.05 | 0.03 | 85 | 1023.4 |
| 20260507034629 | 66 | 42 | 11.0 | 15.0 | 0.00 | 0.05 | 0.03 | 84 | 1023.5 |
| 20260507033125 | 66 | 28 | 12.0 | 15.0 | 0.00 | 0.05 | 0.03 | 83 | 1023.5 |
| 20260507031625 | 66 | 45 | 11.0 | 14.0 | 0.00 | 0.05 | 0.03 | 83 | 1023.7 |
| 20260507030816 | 66 | 46 | 11.0 | 15.0 | 0.00 | 0.05 | 0.03 | 84 | 1023.9 |
| 20260507024617 | 66 | 49 | 11.0 | 15.0 | 0.00 | 0.05 | 0.03 | 84 | 1023.9 |
| 20260507023704 | 67 | 20 | 13.0 | 16.0 | 0.00 | 0.05 | 0.03 | 84 | 1023.9 |
| 20260507023122 | 67 | 11 | 12.0 | 15.0 | 0.00 | 0.05 | 0.03 | 84 | 1023.8 |
| 20260507020104 | 68 | 48 | 13.0 | 15.0 | 0.00 | 0.05 | 0.03 | 84 | 1023.9 |
| 20260507014559 | 68 | 26 | 9.0 | 15.0 | 0.00 | 0.05 | 0.03 | 85 | 1024.3 |
| 20260507013054 | 67 | 36 | 12.0 | 14.0 | 0.00 | 0.05 | 0.03 | 85 | 1024.3 |
| 20260507011555 | 68 | 28 | 12.0 | 15.0 | 0.00 | 0.05 | 0.03 | 85 | 1024.4 |
| 20260507010051 | 67 | 24 | 11.0 | 15.0 | 0.00 | 0.05 | 0.03 | 86 | 1024.5 |
| 20260507004552 | 67 | 23 | 12.0 | 17.0 | 0.00 | 0.05 | 0.03 | 85 | 1024.7 |
| 20260507003047 | 67 | 5 | 9.0 | 18.0 | 0.00 | 0.05 | 0.03 | 86 | 1025.0 |
| 20260507001548 | 67 | 18 | 16.0 | 20.0 | 0.00 | 0.05 | 0.03 | 86 | 1024.8 |
| 20260507000043 | 67 | 28 | 12.0 | 18.0 | 0.00 | 0.05 | 0.03 | 88 | 1025.1 |
| 20260506234538 | 67 | 28 | 13.0 | 17.0 | 0.00 | 0.05 | 0.03 | 88 | 1025.3 |
| 20260506233039 | 66 | 53 | 13.0 | 17.0 | 0.00 | 0.05 | 0.03 | 89 | 1025.4 |
| 20260506232228 | 66 | 33 | 13.0 | 15.0 | 0.00 | 0.05 | 0.03 | 91 | 1025.4 |
| 20260506230730 | 65 | 34 | 5.0 | 12.0 | 0.00 | 0.05 | 0.03 | 92 | 1025.5 |
| 20260506224531 | 65 | 24 | 4.0 | 12.0 | 0.00 | 0.05 | 0.03 | 92 | 1025.8 |
| 20260506223027 | 65 | 317 | 6.0 | 19.0 | 0.00 | 0.05 | 0.03 | 92 | 1025.9 |
| 20260506221527 | 65 | 24 | 7.0 | 19.0 | 0.01 | 0.05 | 0.03 | 91 | 1026.0 |
| 20260506220023 | 65 | 22 | 15.0 | 21.0 | 0.01 | 0.05 | 0.03 | 92 | 1026.1 |
| 20260506214524 | 65 | 39 | 16.0 | 21.0 | 0.01 | 0.05 | 0.03 | 92 | 1026.2 |
| 20260506213019 | 65 | 31 | 16.0 | 23.0 | 0.01 | 0.05 | 0.03 | 93 | 1026.2 |
| 20260506211515 | 65 | 55 | 12.0 | 17.0 | 0.01 | 0.04 | 0.02 | 94 | 1026.3 |
| 20260506210015 | 65 | 36 | 14.0 | 20.0 | 0.02 | 0.04 | 0.02 | 95 | 1026.3 |
| 20260506204510 | 64 | 28 | 12.0 | 19.0 | 0.02 | 0.04 | 0.02 | 96 | 1026.4 |
| 20260506203011 | 64 | 49 | 14.0 | 21.0 | 0.02 | 0.05 | 0.02 | 96 | 1026.4 |
| 20260506201507 | 63 | 248 | 3.0 | 5.0 | 0.02 | 0.07 | 0.02 | 97 | 1026.3 |
| 20260506200006 | 62 | 248 | 0.0 | 3.0 | 0.01 | 0.06 | 0.01 | 97 | 1026.1 |
| 20260506194458 | 62 | 198 | 0.0 | 2.0 | 0.01 | 0.06 | 0.01 | 96 | 1026.2 |
| 20260506192954 | 62 | 198 | 0.0 | 4.0 | 0.00 | 0.06 | 0.00 | 96 | 1026.1 |
| 20260506191450 | 62 | 252 | 2.0 | 3.0 | 0.00 | 0.06 | 0.00 | 96 | 1026.2 |
| 20260506185951 | 62 | 227 | 1.0 | 3.0 | 0.00 | 0.06 | 0.00 | 96 | 1026.0 |
| 20260506185154 | 62 | 220 | 0.0 | 1.0 | 0.00 | 0.06 | 0.00 | 96 | 1025.9 |
| 20260506182943 | 62 | 220 | 0.0 | 1.0 | 0.00 | 0.06 | 0.00 | 96 | 1025.9 |
| 20260506181437 | 63 | 220 | 1.0 | 2.0 | 0.00 | 0.06 | 0.00 | 96 | 1026.0 |
| 20260506175932 | 63 | 220 | 1.0 | 3.0 | 0.00 | 0.06 | 0.00 | 96 | 1026.0 |
| 20260506174433 | 63 | 220 | 1.0 | 3.0 | 0.00 | 0.06 | 0.00 | 95 | 1026.1 |
| 20260506172924 | 63 | 220 | 2.0 | 4.0 | 0.00 | 0.06 | 0.00 | 95 | 1026.2 |
| 20260506171420 | 63 | 229 | 2.0 | 6.0 | 0.00 | 0.06 | 0.00 | 95 | 1026.2 |
| 20260506165920 | 64 | 189 | 0.0 | 3.0 | 0.00 | 0.09 | 0.00 | 95 | 1026.3 |
| 20260506164416 | 65 | 16 | 1.0 | 8.0 | 0.00 | 0.14 | 0.00 | 95 | 1026.2 |
| 20260506162918 | 65 | 20 | 6.0 | 9.0 | 0.00 | 0.16 | 0.00 | 95 | 1026.2 |
| 20260506161407 | 65 | 61 | 2.0 | 5.0 | 0.00 | 0.16 | 0.00 | 95 | 1026.2 |
| 20260506155908 | 65 | 15 | 3.0 | 6.0 | 0.00 | 0.16 | 0.00 | 95 | 1026.2 |
| 20260506154407 | 65 | 53 | 4.0 | 6.0 | 0.00 | 0.16 | 0.00 | 95 | 1026.3 |
| 20260506152859 | 65 | 49 | 4.0 | 8.0 | 0.00 | 0.16 | 0.00 | 94 | 1026.5 |
| 20260506151354 | 65 | 55 | 4.0 | 9.0 | 0.00 | 0.16 | 0.00 | 94 | 1026.5 |
| 20260506145855 | 65 | 26 | 6.0 | 10.0 | 0.00 | 0.16 | 0.00 | 94 | 1026.7 |
| 20260506144350 | 65 | 50 | 8.0 | 13.0 | 0.00 | 0.17 | 0.00 | 94 | 1027.0 |
| 20260506142850 | 65 | 15 | 10.0 | 13.0 | 0.00 | 0.17 | 0.00 | 94 | 1027.2 |
| 20260506141346 | 65 | 46 | 9.0 | 11.0 | 0.00 | 0.18 | 0.00 | 94 | 1027.5 |
| 20260506135846 | 65 | 15 | 8.0 | 11.0 | 0.00 | 0.18 | 0.00 | 94 | 1027.7 |
| 20260506135037 | 65 | 46 | 8.0 | 13.0 | 0.00 | 0.18 | 0.00 | 93 | 1027.8 |
| 20260506132837 | 65 | 22 | 10.0 | 13.0 | 0.00 | 0.18 | 0.00 | 93 | 1027.9 |
| 20260506131338 | 65 | 42 | 10.0 | 12.0 | 0.00 | 0.18 | 0.00 | 93 | 1028.0 |
| 20260506125834 | 65 | 32 | 11.0 | 13.0 | 0.00 | 0.18 | 0.00 | 93 | 1027.9 |
| 20260506124334 | 65 | 36 | 9.0 | 11.0 | 0.00 | 0.18 | 0.00 | 94 | 1027.8 |
| 20260506122830 | 65 | 34 | 8.0 | 12.0 | 0.00 | 0.18 | 0.00 | 94 | 1027.8 |
| 20260506121330 | 65 | 45 | 9.0 | 12.0 | 0.00 | 0.18 | 0.00 | 94 | 1028.0 |
| 20260506115827 | 65 | 38 | 6.0 | 9.0 | 0.00 | 0.18 | 0.18 | 95 | 1028.1 |